Temp_Advection
nan nan nan nan nan nan nan nan nan nan nan nan nan nan nan nan nan nan nan nan nan nan nan nan nan nan nan nan nan nan nan nan nan nan nan nan nan nan nan nan nan nan
nan -1 -1 -1 -1 -1 -1 -1 -1 -1 -1 -1 -1 -1 -1 -1 -2 -2 -2 -2 -3 -2 -2 -2 -2 -3 -3 -2 -1 -0 -0 -0 0 -0 0 1 1 1 1 1 2 nan
nan -1 -1 -1 -1 -1 -1 -1 -1 -2 -2 -1 -1 -1 -1 -1 -1 -2 -2 -2 -2 -2 -1 -1 -2 -4 -3 -3 -2 -1 0 0 -0 -0 0 1 1 1 0 0 1 nan
nan -0 -0 -0 -1 -1 -1 -1 -1 -1 -1 -1 -1 -1 -1 -1 -1 -1 -2 -2 -3 -2 -1 -0 -1 -3 -4 -3 -2 -1 0 0 -0 0 0 0 1 0 -0 0 1 nan
nan -0 -0 -0 -1 -1 -2 -2 -1 -1 -1 -1 -1 -1 -1 -1 -1 -1 -1 -2 -2 -3 -1 0 0 -1 -2 -3 -3 -2 -1 -0 -0 1 1 0 0 0 -0 0 0 nan
nan -1 -1 -1 -1 -2 -2 -2 -1 -1 -1 -1 -1 -1 -1 -1 -1 -1 -1 -1 -2 -2 -2 -1 0 1 0 -1 -3 -3 -2 -1 -1 -0 0 0 0 0 0 0 -0 nan
nan -1 -1 -1 -1 -1 -1 -1 -1 -1 -1 -1 -1 -1 -1 -1 -1 -1 -1 -2 -2 -2 -2 -2 -1 0 1 1 -0 -2 -3 -2 -2 -1 -0 0 0 0 0 0 -0 nan
nan -1 -1 -2 -1 -1 -1 -1 -1 -1 -1 -2 -1 -1 -1 -1 -1 -1 -1 -1 -2 -2 -2 -2 -1 -1 -1 0 1 0 -1 -2 -2 -1 -0 -0 0 0 0 0 -0 nan
nan -1 -1 -1 -1 -1 -1 -1 -2 -1 -1 -2 -2 -2 -1 -1 -2 -2 -2 -2 -2 -2 -2 -2 -1 -1 -1 -1 -0 0 0 -1 -2 -2 -1 -0 0 0 0 0 -0 nan
nan -1 -1 -1 -1 -1 -2 -2 -2 -2 -2 -2 -3 -3 -2 -2 -2 -2 -3 -3 -3 -2 -2 -1 -1 -1 -1 -0 1 0 -1 -2 -2 -2 -1 -1 -0 0 0 0 -0 nan
nan -1 -1 -1 -1 -1 -2 -2 -2 -2 -2 -2 -2 -3 -2 -2 -2 -2 -2 -3 -3 -3 -2 -2 -1 -1 -2 -2 0 2 0 -2 -2 -2 -2 -1 -0 -0 0 0 -0 nan
nan -1 -1 -1 -1 -1 -2 -2 -2 -2 -2 -1 -1 -2 -2 -2 -2 -2 -1 -2 -3 -3 -2 -2 -2 -1 -1 -3 -2 0 1 0 -1 -3 -3 -2 -1 -0 0 0 0 nan
nan -1 -1 -1 -1 -1 -1 -1 -1 -1 -1 -1 -1 -1 -2 -2 -2 -2 -1 -1 -2 -3 -2 -2 -2 -2 -0 -2 -4 -3 -1 0 -0 -2 -3 -3 -2 -1 -0 -0 0 nan
nan -1 -1 -1 -1 -1 -1 -1 -1 -1 -1 -1 -1 -1 -1 -2 -2 -3 -2 -1 -1 -2 -3 -2 -3 -3 -1 -1 -3 -3 -2 -1 -1 -2 -3 -4 -3 -2 -1 -0 0 nan
nan -1 -1 -1 -1 -1 -1 -1 -1 -1 -1 -1 -1 -1 -2 -2 -2 -2 -4 -4 -2 -1 -1 -2 -3 -3 -1 -0 -2 -3 -2 -2 -2 -2 -3 -4 -3 -2 -1 -0 -0 nan
nan -1 -1 -1 -1 -1 -2 -2 -1 -1 -1 -1 -1 -1 -2 -3 -3 -2 -2 -3 -4 -3 -1 -1 -2 -2 -1 -1 -2 -3 -3 -3 -2 -2 -2 -3 -2 -2 -1 -0 -0 nan
nan -1 -1 -1 -1 -1 -1 -1 -1 -1 -1 -2 -2 -1 -1 -2 -2 -3 -2 -1 -3 -4 -2 -1 -1 -1 -1 -2 -3 -3 -3 -2 -3 -2 -2 -2 -2 -2 -1 -1 -0 nan
nan -1 -1 -1 -1 -1 -1 -1 -1 -1 -1 -2 -2 -2 -2 -1 -1 -2 -2 -1 -1 -2 -2 -1 -1 -1 -1 -1 -2 -3 -3 -2 -2 -2 -2 -2 -1 -2 -2 -1 -0 nan
nan -1 -1 -1 -1 -1 -1 -1 -1 -1 -1 -2 -3 -2 -1 -1 -1 -1 -1 -1 -1 -1 -1 -1 -1 -1 -1 -1 -1 -2 -2 -2 -2 -2 -2 -2 -2 -1 -1 -1 -1 nan
nan -1 -1 -1 -1 -1 -1 -1 -1 -2 -2 -1 -2 -3 -2 -2 -2 -2 -2 -1 -0 -1 -1 -1 -2 -1 -1 -1 -1 -2 -2 -1 -1 -1 -2 -2 -2 -1 -1 -1 -1 nan
nan -1 -1 -2 -2 -1 -2 -2 -1 -2 -2 -2 -2 -2 -2 -2 -2 -2 -2 -1 -0 -0 -1 -2 -2 -2 -2 -2 -1 -2 -1 -1 -0 -1 -2 -2 -1 -1 -1 -1 -0 nan
nan -2 -2 -2 -2 -3 -3 -2 -2 -1 -1 -1 -2 -2 -1 -1 -1 -1 -1 -2 -1 -0 -1 -2 -2 -2 -2 -2 -2 -2 -1 -0 -0 -1 -1 -1 -2 -1 -1 -1 -1 nan
nan -2 -3 -3 -2 -2 -3 -2 -2 -1 -0 -0 -1 -2 -1 -0 -0 -0 -0 -1 -1 -1 -0 -1 -3 -3 -2 -2 -2 -1 -0 -0 -1 -1 -1 -1 -1 -1 -1 -1 -0 nan
nan -1 -2 -3 -2 -1 -1 -2 -2 -1 -0 0 1 -1 -1 -1 -0 -0 -0 -0 -1 -1 -0 -0 -2 -2 -2 -2 -2 -1 -0 -1 -1 -1 -1 -1 -1 -1 -1 -1 -0 nan
nan 0 0 -1 -2 -1 1 0 -2 -2 -1 0 1 0 -1 -1 -0 -0 -1 -1 -1 -1 -0 0 -1 -2 -2 -2 -2 -2 -1 -1 -1 -1 -1 -1 -1 -1 -0 -0 -0 nan
nan nan nan nan nan nan nan nan nan nan nan nan nan nan nan nan nan nan nan nan nan nan nan nan nan nan nan nan nan nan nan nan nan nan nan nan nan nan nan nan nan nan
Wind_Speed
30 29 27 26 27 29 30 32 33 34 35 36 37 37 36 35 34 34 35 35 36 36 35 36 40 43 44 44 43 44 45 46 45 43 41 39 38 35 35 38 40 42
29 27 26 26 28 29 31 33 35 36 36 34 32 31 31 31 32 32 33 34 34 35 34 35 38 42 46 46 46 47 49 48 47 44 42 40 38 36 35 35 37 41
27 27 26 27 30 32 35 36 35 33 30 27 26 27 30 32 34 35 35 35 35 35 34 33 35 40 45 47 49 50 49 46 45 43 41 39 37 36 35 35 36 40
30 30 30 31 33 35 35 34 30 26 25 25 27 30 33 35 37 38 38 38 37 36 33 30 30 34 40 45 48 48 46 44 44 41 39 39 38 36 35 35 36 39
35 34 32 32 33 32 30 28 26 25 26 28 31 34 37 40 42 42 42 42 41 40 38 34 30 30 33 39 43 45 45 46 46 43 40 40 38 37 35 35 36 38
37 34 33 32 31 28 26 25 25 28 30 33 36 40 42 44 46 46 46 45 44 44 44 43 39 34 31 33 37 42 45 46 46 45 43 42 39 37 36 35 36 38
37 34 32 30 28 25 24 26 30 34 37 41 43 44 45 46 46 47 47 47 47 46 46 46 47 43 39 36 35 38 42 45 46 45 44 44 42 39 38 37 37 39
37 34 30 27 24 24 28 33 37 40 42 44 44 45 45 45 46 46 46 46 46 46 46 46 47 47 46 43 40 38 39 42 44 45 45 46 45 42 40 38 38 39
36 31 26 24 25 30 36 41 43 43 42 43 44 45 45 45 46 46 47 47 47 47 46 46 46 46 47 46 44 42 40 41 43 45 47 47 46 44 42 40 39 39
34 28 23 25 30 37 44 46 46 44 44 44 45 47 47 47 46 46 46 47 48 48 48 47 47 47 48 48 46 43 43 43 43 45 47 48 47 45 43 41 41 41
32 26 25 31 37 43 48 48 47 46 46 46 47 48 48 48 48 47 46 46 47 48 48 49 49 49 49 49 49 46 44 44 45 46 47 48 48 47 45 43 43 43
29 26 30 36 41 47 50 49 48 47 47 47 48 49 50 50 49 49 48 47 47 47 48 49 50 50 49 48 49 48 47 45 45 47 48 49 49 49 48 46 45 45
26 29 35 41 45 48 49 48 48 48 48 49 49 50 51 51 51 51 50 49 49 48 48 48 48 48 48 47 47 46 46 45 45 46 49 50 50 50 50 48 47 47
29 35 39 44 47 48 48 48 49 49 50 50 51 51 52 52 52 52 51 51 50 49 48 47 47 46 45 45 45 43 41 41 42 44 46 48 50 51 51 50 49 48
34 40 43 46 47 48 49 49 50 50 51 51 52 52 52 52 52 51 51 50 50 49 47 46 45 44 43 42 41 40 38 38 39 40 42 44 47 49 50 50 49 48
39 44 46 47 48 49 50 50 51 52 52 53 53 53 52 52 51 50 49 48 48 48 47 45 44 43 42 40 38 38 38 39 40 41 41 42 45 48 49 50 49 49
44 46 47 48 49 50 50 51 52 52 53 53 54 53 52 51 49 48 47 46 45 46 46 45 44 43 41 40 39 38 38 38 39 40 41 41 43 46 47 48 47 47
46 48 49 50 50 50 51 51 52 53 53 54 54 53 52 50 48 47 46 45 45 45 45 45 44 42 40 39 39 38 37 37 38 39 40 41 42 44 45 45 44 44
48 49 50 51 51 51 51 52 53 53 53 53 53 52 50 49 47 46 46 45 45 45 45 45 44 42 39 37 36 37 37 36 37 39 40 41 43 43 45 45 45 44
49 50 51 51 51 51 52 52 53 53 53 51 51 49 48 48 47 46 46 45 45 46 46 46 44 40 37 34 33 33 32 32 34 37 39 39 40 39 40 42 43 43
50 51 51 52 52 52 52 53 53 52 51 49 48 47 47 47 47 47 47 46 46 45 46 46 42 38 35 32 30 29 28 30 34 37 38 38 37 35 34 35 37 39
50 51 52 52 52 52 53 53 52 51 49 47 47 46 47 47 47 47 47 47 46 45 45 46 42 37 33 29 27 27 29 32 36 37 37 37 35 33 32 30 31 34
49 51 51 52 52 52 53 52 51 50 48 46 46 47 48 48 48 48 47 47 47 45 45 46 43 38 32 28 26 27 30 33 36 36 35 34 32 30 29 27 28 30
49 49 50 51 51 52 51 51 49 48 47 45 46 47 48 48 48 49 48 47 46 45 44 45 44 39 32 28 28 29 30 33 34 33 31 30 28 25 23 23 24 26
49 49 49 50 50 50 49 48 47 47 46 44 45 46 48 48 48 49 49 48 46 45 44 43 43 40 33 28 28 30 31 31 31 29 28 26 23 20 19 20 22 26
48 48 49 49 49 49 48 46 45 45 45 45 46 46 47 47 47 48 50 49 47 46 44 41 40 38 33 29 29 31 29 28 27 26 24 22 19 18 18 20 22 26
Wind_Direction
323 323 319 317 315 313 309 306 305 304 305 306 308 309 311 311 311 311 310 308 305 301 301 302 298 291 289 290 290 291 291 289 288 287 285 284 285 286 286 284 280 277
326 325 322 320 315 310 308 308 309 310 310 311 313 312 311 311 311 312 312 311 308 305 303 304 300 293 287 287 288 289 288 286 284 282 281 279 280 282 283 284 282 277
333 332 329 322 316 314 315 317 318 319 319 320 318 313 311 312 312 311 310 309 307 305 304 304 304 297 288 285 286 285 283 282 280 279 277 275 276 279 280 281 282 277
335 331 325 320 317 318 320 322 324 324 322 318 313 309 309 310 309 308 308 305 301 300 301 304 305 299 289 283 281 279 279 279 279 277 273 272 273 275 277 278 279 277
332 329 326 322 321 323 325 326 325 321 317 312 308 306 307 307 305 305 305 302 298 294 295 297 298 298 294 288 282 278 278 279 278 275 270 268 271 272 274 275 275 277
331 330 328 326 326 329 329 325 319 315 313 310 308 307 307 306 306 305 304 302 299 294 292 291 290 291 294 295 289 282 278 277 276 275 269 267 270 270 271 272 273 276
331 331 329 329 330 330 325 319 316 314 313 312 311 310 309 308 307 306 305 303 301 297 293 290 288 287 286 287 288 286 282 278 275 272 267 266 268 269 268 269 271 273
332 331 331 331 329 324 320 319 318 317 315 314 312 311 311 310 308 307 305 303 301 299 296 292 290 287 284 281 279 281 283 280 274 268 264 265 267 267 266 266 268 270
332 333 334 328 322 321 322 323 322 320 318 317 315 313 312 312 310 309 307 305 303 301 298 295 292 288 285 282 278 274 275 275 273 268 264 265 266 265 264 264 265 266
334 335 329 319 318 320 323 325 325 323 322 320 318 317 316 314 313 311 309 306 304 303 301 298 295 291 287 284 280 276 271 269 269 269 267 265 264 263 262 261 262 263
336 332 319 315 317 319 322 325 325 324 324 323 321 319 317 316 315 312 310 308 306 304 302 300 298 295 291 286 282 278 272 267 265 267 267 265 263 261 260 260 260 261
336 323 315 315 316 318 322 324 325 325 324 323 321 320 318 317 316 315 313 310 307 305 303 301 299 297 295 291 286 281 276 269 264 263 264 264 263 261 259 258 258 259
329 316 314 315 317 320 324 324 325 326 324 323 322 321 320 319 318 316 314 312 309 307 305 303 302 300 298 295 291 285 280 274 267 263 262 262 261 261 259 258 257 258
321 315 316 318 321 324 325 326 326 326 324 323 323 322 321 320 319 317 314 312 311 309 308 306 304 302 299 296 294 291 287 281 273 267 263 262 261 260 258 257 257 257
319 320 322 324 326 327 327 327 327 325 324 324 323 322 321 320 320 318 316 314 312 310 309 307 305 301 299 298 296 294 292 288 281 274 269 265 262 259 258 257 257 257
324 326 327 329 330 329 329 328 327 326 325 324 323 323 322 322 321 319 317 315 313 311 309 308 307 304 302 299 294 290 288 285 282 278 274 268 264 260 258 256 255 256
329 330 331 331 331 330 329 328 327 326 325 324 324 323 323 323 321 320 318 317 315 314 312 311 309 306 303 299 293 289 286 282 279 277 274 270 265 262 260 256 254 255
333 333 332 332 331 331 330 329 328 327 326 325 325 324 324 323 322 321 319 318 318 316 313 312 310 308 305 300 294 290 286 282 279 276 274 271 267 264 261 258 255 254
336 334 333 332 332 331 330 329 328 327 327 326 325 325 324 323 322 322 321 320 320 317 315 313 311 310 308 303 297 292 287 282 278 276 274 273 271 268 263 259 256 254
337 335 333 332 332 332 330 330 329 328 327 327 326 325 324 324 324 324 323 322 321 319 316 314 313 312 311 307 301 295 286 281 281 281 279 277 276 272 265 259 255 251
337 335 333 333 332 332 331 330 329 328 327 328 328 326 326 326 326 325 324 322 322 320 317 315 314 314 313 309 302 291 280 280 287 289 285 280 277 274 268 262 256 251
337 335 334 333 333 332 332 331 329 328 328 330 329 328 327 327 326 325 324 323 322 321 319 316 316 316 314 309 302 291 282 284 289 290 287 284 279 275 272 267 260 251
337 335 334 334 333 333 332 331 330 329 330 331 330 328 328 327 327 325 324 324 322 321 319 317 317 318 315 309 304 296 289 290 292 291 290 287 283 278 274 267 258 247
337 336 335 334 333 333 332 331 330 330 331 332 331 329 328 328 327 325 324 324 323 321 320 318 317 318 316 309 303 299 294 295 295 293 290 288 285 282 275 262 251 241
337 337 336 334 333 333 332 332 332 332 332 332 331 330 328 327 327 326 324 325 324 322 321 319 316 317 317 310 304 300 296 296 296 294 291 290 290 284 270 253 241 235
338 338 337 335 335 334 333 333 334 334 334 333 332 331 329 328 328 326 325 324 324 322 321 320 318 317 318 315 307 302 296 293 296 297 293 294 294 279 259 243 234 230
Height
1474 1472 1469 1467 1465 1463 1459 1456 1454 1451 1449 1446 1444 1441 1439 1437 1435 1432 1430 1427 1425 1423 1421 1420 1419 1418 1417 1416 1416 1414 1412 1410 1409 1409 1408 1407 1406 1406 1405 1405 1405 1404
1471 1468 1466 1464 1461 1458 1456 1453 1450 1447 1444 1442 1440 1437 1434 1432 1430 1427 1425 1422 1420 1418 1416 1415 1413 1413 1412 1411 1410 1408 1406 1404 1403 1403 1402 1401 1400 1399 1399 1399 1399 1399
1468 1466 1463 1460 1457 1454 1451 1449 1446 1443 1440 1438 1436 1433 1430 1427 1424 1422 1420 1418 1415 1413 1411 1410 1408 1408 1407 1406 1404 1402 1400 1399 1398 1398 1397 1395 1394 1393 1392 1393 1393 1393
1465 1463 1460 1457 1453 1450 1447 1444 1442 1439 1437 1434 1431 1429 1426 1423 1419 1417 1415 1412 1410 1408 1406 1405 1403 1402 1402 1401 1399 1397 1395 1393 1392 1392 1391 1389 1388 1387 1387 1387 1386 1386
1461 1459 1456 1453 1450 1447 1444 1441 1438 1436 1433 1430 1428 1425 1421 1418 1414 1411 1409 1407 1405 1403 1401 1400 1398 1397 1396 1395 1394 1392 1389 1388 1387 1386 1385 1383 1383 1382 1381 1381 1380 1380
1458 1455 1452 1449 1446 1443 1440 1438 1435 1432 1430 1426 1423 1420 1416 1413 1409 1407 1404 1401 1400 1398 1396 1394 1393 1391 1390 1389 1388 1386 1384 1382 1380 1380 1378 1376 1376 1376 1375 1375 1374 1374
1454 1451 1448 1445 1443 1440 1437 1434 1432 1429 1425 1421 1417 1414 1411 1407 1404 1402 1399 1396 1394 1392 1390 1388 1386 1385 1384 1383 1381 1379 1377 1376 1375 1374 1372 1370 1370 1369 1369 1369 1368 1368
1450 1447 1445 1442 1440 1437 1434 1431 1428 1424 1421 1416 1412 1409 1406 1403 1400 1396 1394 1391 1388 1385 1383 1381 1379 1378 1377 1375 1374 1372 1371 1370 1369 1368 1366 1364 1364 1363 1362 1363 1362 1362
1447 1444 1442 1439 1436 1434 1430 1427 1423 1419 1416 1412 1408 1404 1401 1398 1396 1392 1388 1385 1382 1379 1376 1374 1372 1370 1368 1367 1366 1365 1364 1363 1362 1361 1359 1358 1357 1356 1356 1357 1356 1355
1444 1441 1439 1436 1433 1429 1426 1422 1418 1414 1411 1407 1403 1399 1396 1393 1390 1387 1383 1379 1375 1372 1369 1366 1364 1362 1360 1358 1357 1356 1355 1355 1354 1354 1352 1351 1350 1349 1349 1350 1350 1349
1440 1438 1435 1432 1428 1425 1421 1417 1413 1410 1406 1402 1398 1394 1390 1387 1384 1380 1377 1373 1369 1365 1362 1358 1356 1353 1351 1349 1347 1347 1346 1345 1345 1345 1344 1343 1342 1342 1343 1343 1343 1342
1437 1434 1431 1428 1425 1421 1416 1412 1408 1404 1400 1396 1393 1388 1384 1380 1377 1373 1370 1366 1362 1359 1355 1351 1348 1345 1342 1340 1338 1337 1336 1335 1335 1335 1335 1335 1335 1334 1335 1335 1336 1335
1434 1432 1428 1425 1421 1416 1411 1407 1403 1399 1394 1391 1387 1383 1378 1374 1369 1365 1362 1358 1355 1351 1348 1345 1341 1338 1335 1332 1330 1328 1327 1326 1325 1326 1326 1326 1326 1326 1327 1327 1328 1328
1432 1428 1425 1421 1416 1411 1407 1402 1397 1393 1389 1385 1381 1377 1372 1368 1363 1358 1354 1351 1347 1344 1341 1338 1334 1331 1328 1325 1322 1320 1319 1318 1317 1317 1317 1317 1318 1318 1319 1319 1319 1320
1428 1424 1420 1416 1411 1406 1401 1397 1392 1388 1384 1379 1375 1371 1366 1362 1357 1353 1348 1344 1340 1337 1334 1331 1328 1325 1322 1320 1317 1314 1313 1312 1311 1310 1309 1309 1309 1310 1310 1311 1312 1312
1423 1419 1415 1410 1406 1401 1396 1391 1387 1382 1377 1373 1369 1364 1360 1356 1351 1347 1343 1339 1334 1330 1327 1324 1321 1318 1315 1314 1313 1311 1309 1307 1305 1303 1303 1302 1302 1302 1302 1302 1304 1305
1419 1414 1410 1405 1401 1396 1391 1387 1382 1377 1372 1367 1362 1358 1354 1350 1345 1341 1337 1333 1329 1324 1320 1317 1314 1312 1309 1308 1306 1305 1304 1301 1299 1297 1296 1296 1295 1294 1294 1294 1296 1297
1414 1409 1404 1400 1396 1391 1386 1381 1377 1371 1366 1361 1356 1352 1347 1343 1340 1336 1331 1328 1324 1319 1315 1311 1308 1305 1303 1301 1299 1298 1297 1295 1293 1291 1290 1289 1288 1288 1288 1288 1289 1290
1410 1405 1399 1395 1391 1386 1381 1376 1371 1366 1361 1356 1351 1346 1342 1338 1334 1330 1326 1322 1319 1314 1309 1305 1302 1299 1297 1295 1292 1291 1290 1289 1286 1284 1283 1282 1281 1281 1281 1281 1282 1283
1405 1400 1395 1390 1386 1381 1376 1371 1366 1361 1356 1351 1346 1342 1337 1332 1328 1324 1320 1317 1314 1309 1304 1300 1296 1294 1291 1289 1287 1285 1283 1282 1280 1278 1277 1275 1274 1274 1273 1274 1275 1277
1401 1396 1391 1386 1381 1377 1372 1367 1362 1357 1352 1347 1343 1338 1333 1329 1324 1320 1315 1311 1308 1304 1299 1294 1291 1289 1286 1283 1281 1279 1277 1275 1273 1272 1270 1268 1267 1267 1267 1267 1269 1270
1398 1393 1387 1382 1377 1372 1367 1362 1357 1352 1348 1344 1339 1334 1329 1325 1321 1317 1312 1307 1302 1299 1294 1289 1286 1284 1281 1278 1276 1274 1272 1270 1267 1265 1263 1262 1261 1261 1261 1262 1263 1264
1396 1390 1384 1379 1374 1369 1363 1358 1353 1348 1344 1340 1335 1329 1324 1320 1316 1312 1308 1304 1299 1294 1290 1285 1281 1279 1277 1274 1272 1269 1267 1265 1262 1260 1258 1257 1256 1256 1256 1256 1257 1259
1394 1388 1382 1376 1371 1366 1360 1355 1350 1344 1340 1336 1331 1326 1321 1316 1312 1307 1303 1300 1295 1290 1286 1282 1277 1275 1273 1270 1267 1265 1262 1260 1258 1256 1254 1252 1251 1251 1251 1251 1252 1254
1390 1385 1380 1374 1369 1363 1358 1352 1347 1342 1337 1333 1328 1324 1318 1313 1308 1303 1298 1294 1291 1286 1282 1278 1273 1270 1268 1265 1263 1260 1258 1256 1254 1252 1250 1248 1247 1247 1247 1247 1249 1250
1387 1382 1377 1371 1366 1360 1354 1349 1345 1339 1334 1329 1324 1320 1315 1310 1305 1300 1294 1290 1286 1282 1278 1274 1270 1266 1263 1261 1258 1256 1253 1252 1250 1248 1246 1245 1244 1243 1244 1245 1246 1248